Hourly Data Report for November 19, 2020

CARBERRY CS
MANITOBA
Current Station Operator: ECCC - MSC

49°54'20.900" N
99°21'26.800" W
383.50 m
5010547
71170
WZE

Download Data

Hourly Data (November 2020)
Hourly Data Report for November 19, 2020
TIME
LST
Temp Definition
°C
Dew Point Definition
°C
Rel Hum Definition
%
Precip. Amount Definition
mm

Wind Dir Definition
10's deg

Wind Spd Definition
km/h
Visibility Definition
km
Stn Press Definition
kPa
Hmdx Definition


Wind Chill Definition


Weather Definition


00:00 1.0 -1.2 85 0.0 30 26   95.86     LegendNANA
01:00 -1.7 -3.7 86 0.0 29 27   95.94   -8 LegendNANA
02:00 -1.8 -4.0 85 0.0 28 21   96.05   -8 LegendNANA
03:00 -2.0 -4.1 86 0.0 28 19   96.16   -8 LegendNANA
04:00 -2.3 -3.9 89 0.0 29 20   96.23   -8 LegendNANA
05:00 -2.6 -3.7 92 0.0 32 13   96.27   -7 LegendNANA
06:00 -3.2 -3.8 95 0.0 31 14   96.34   -8 LegendNANA
07:00 -3.3 -3.4 100 0.0 33 10   96.39   -7 LegendNANA
08:00 -3.5 -3.6 100 0.0 31 9   96.49   -7 LegendNANA
09:00 -3.5 -3.5 100 0.0 34 5   96.52   -6 LegendNANA
10:00 -3.1 -4.9 88 0.0 7 8   96.58   -6 LegendNANA
11:00 -2.9 -5.3 84 0.0 7 10   96.60   -7 LegendNANA
12:00 -2.8 -5.7 80 0.0 8 6   96.63   -5 LegendNANA
13:00 -2.7 -5.2 83 0.0 0 1   96.63   -3 LegendNANA
14:00 -2.6 -4.7 85 0.0 13 3   96.64   -4 LegendNANA
15:00 -2.7 -4.2 89 0.0 18 5   96.66   -5 LegendNANA
16:00 -2.7 -4.5 88 0.0 23 10   96.71   -7 LegendNANA
17:00 -3.3 -3.8 96 0.0 24 9   96.79   -7 LegendNANA
18:00 -3.5 -4.3 94 0.0 26 12   96.83   -8 LegendNANA
19:00 -3.6 -5.0 91 0.0 27 14   96.88   -9 LegendNANA
20:00 -3.8 -5.5 88 0.0 27 17   96.95   -10 LegendNANA
21:00 -3.8 -6.0 85 0.0 28 16   97.00   -9 LegendNANA
22:00 -4.0 -6.1 85 0.0 28 18   97.07   -10 LegendNANA
23:00 -5.0 -5.1 100 0.0 36 11   97.14   -10 LegendNANA

Notes on Data Quality.

Legend

  • E = Estimated
  • M = Missing
  • NA = Not Available*
  • [empty] = Indicates an unobserved value
Date modified: